FAUNA (43052 NORAD) Tracking and Keplerian Element Data

This shows tracking and keplerian element data for the satellite.

Feedback or suggestion? Click here.




ElementValue
Catalog43052
NameFAUNA
Epoch Orbit3424
Epoch Day198.53949227
Epoch Year2018
RAAN253.2356
Inclination51.6386
Eccentricity0.0002869
Argument of Perigee38.2607
Mean Anonmoly321.8581
Mean Motion15.39300921
Decay Rate2.068E-05
L11 43052U 17071R 18198.53949227 .00002068 00000-0 62262-4 0 9996
L22 43052 51.6386 253.2356 0002869 38.2607 321.8581 15.39300921 34246

Live tracking and technical data element details for FAUNA (NORAD 43052). FAUNA can be tracked NOW for your location showing map with azimuth and elevation plus other details from your city location.

Track the satellite on the map from your city or location and see movement details for azimuth, elevation, latitude, longitude, range, height, and movement on the map or in text.







IsCatalogInMostPopularTable: catalog: 43052, numindb: 101
Update: records affected: 1



GetName: 43052 FAUNA

Hit Count: updated at: Fri, 20 Jul 2018 20:37:29 GMT